TimeCDT,TemperatureF,Dew PointF,Humidity,Sea Level PressureIn,VisibilityMPH,Wind Direction,Wind SpeedMPH,Gust SpeedMPH,PrecipitationIn,Events,Conditions,WindDirDegrees,DateUTC
12:51 AM,78.1,73.0,84,30.02,10.0,ESE,5.8,-,N/A,,Partly Cloudy,120,2013-08-28 05:51:00
1:08 AM,77.0,73.4,89,30.07,10.0,SE,5.8,-,N/A,,Mostly Cloudy,130,2013-08-28 06:08:00
1:37 AM,77.0,73.4,89,30.07,10.0,East,3.5,-,N/A,,Mostly Cloudy,100,2013-08-28 06:37:00
1:51 AM,77.0,73.0,88,30.01,10.0,East,3.5,-,N/A,,Mostly Cloudy,100,2013-08-28 06:51:00
2:51 AM,79.0,73.9,84,30.02,10.0,SSE,6.9,-,N/A,,Overcast,160,2013-08-28 07:51:00
3:51 AM,78.1,73.9,87,30.01,10.0,South,5.8,-,N/A,,Mostly Cloudy,180,2013-08-28 08:51:00
4:31 AM,78.8,73.4,83,30.06,10.0,South,3.5,-,N/A,,Scattered Clouds,190,2013-08-28 09:31:00
4:51 AM,77.0,73.9,90,30.01,10.0,SSE,4.6,-,N/A,,Scattered Clouds,160,2013-08-28 09:51:00
4:57 AM,78.8,73.4,83,30.07,10.0,South,3.5,-,N/A,,Mostly Cloudy,170,2013-08-28 09:57:00
5:48 AM,78.8,73.4,83,30.08,10.0,South,4.6,-,N/A,,Mostly Cloudy,170,2013-08-28 10:48:00
5:51 AM,78.1,73.9,87,30.02,10.0,South,5.8,-,N/A,,Mostly Cloudy,170,2013-08-28 10:51:00
6:51 AM,78.1,73.9,87,30.03,10.0,South,4.6,-,N/A,,Mostly Cloudy,190,2013-08-28 11:51:00
6:59 AM,78.8,73.4,83,30.08,10.0,SSW,4.6,-,N/A,,Mostly Cloudy,210,2013-08-28 11:59:00
7:18 AM,78.8,73.4,83,30.09,10.0,South,4.6,-,N/A,,Mostly Cloudy,190,2013-08-28 12:18:00
7:51 AM,78.1,73.9,87,30.04,10.0,Calm,Calm,-,N/A,,Mostly Cloudy,0,2013-08-28 12:51:00
8:20 AM,78.8,73.4,83,30.11,10.0,WNW,4.6,-,N/A,,Mostly Cloudy,300,2013-08-28 13:20:00
8:51 AM,81.0,73.9,79,30.06,10.0,SSW,4.6,-,N/A,,Mostly Cloudy,210,2013-08-28 13:51:00
9:51 AM,84.9,72.0,65,30.07,10.0,South,5.8,-,N/A,,Mostly Cloudy,180,2013-08-28 14:51:00
10:51 AM,88.0,70.0,55,30.08,10.0,Variable,4.6,-,N/A,,Scattered Clouds,0,2013-08-28 15:51:00
11:51 AM,89.1,69.1,52,30.08,10.0,Calm,Calm,-,N/A,,Scattered Clouds,0,2013-08-28 16:51:00
12:51 PM,91.0,66.9,45,30.06,10.0,South,6.9,-,N/A,,Scattered Clouds,190,2013-08-28 17:51:00
1:51 PM,93.9,66.0,40,30.04,10.0,Calm,Calm,-,N/A,,Scattered Clouds,0,2013-08-28 18:51:00
2:51 PM,93.9,64.0,37,30.01,10.0,SSE,9.2,-,N/A,,Scattered Clouds,150,2013-08-28 19:51:00
3:51 PM,97.0,64.0,34,29.99,10.0,ESE,11.5,16.1,N/A,,Mostly Cloudy,120,2013-08-28 20:51:00
4:51 PM,95.0,64.9,37,29.97,10.0,ESE,10.4,18.4,N/A,,Mostly Cloudy,110,2013-08-28 21:51:00
5:51 PM,93.9,64.9,38,29.96,10.0,SE,5.8,-,N/A,,Scattered Clouds,130,2013-08-28 22:51:00
6:51 PM,95.0,64.9,37,29.95,10.0,SSE,8.1,-,N/A,,Partly Cloudy,150,2013-08-28 23:51:00
7:51 PM,91.0,64.0,41,29.96,10.0,ESE,6.9,-,N/A,,Partly Cloudy,110,2013-08-29 00:51:00
8:51 PM,89.1,66.0,46,29.97,10.0,SE,9.2,-,N/A,,Partly Cloudy,130,2013-08-29 01:51:00
9:51 PM,84.9,66.9,55,29.99,10.0,SE,9.2,-,N/A,,Clear,130,2013-08-29 02:51:00
10:51 PM,84.9,70.0,61,30.00,10.0,SSE,11.5,-,N/A,,Partly Cloudy,160,2013-08-29 03:51:00
11:51 PM,82.9,71.1,67,30.02,10.0,SSE,10.4,-,N/A,,Clear,150,2013-08-29 04:51:00